CEB4542 RPVP-RPLL

Flight info

Callsign CEB4542
Flight time 1h 4m
Altitude 37000
Route DABOY1E DABOY W281 LEGED N884 LUBAN LUBAN5R
Aircraft A339/H-V/N

Departure

Time 2026-04-26 07:40
Airport Puerto Princesa International Airport / PAF Antonio Bautista Air Base (RPVP)

Arrival

Time 2026-04-26 08:44
Airport Ninoy Aquino International Airport (RPLL)
Time Latitude Longitude Altitude Speed Heading
2026-04-26 07:28 9.74501 118.74997 83 ft 0 kts
2026-04-26 07:32 9.74488 118.74996 83 ft 2 kts
2026-04-26 07:32 9.74473 118.74995 83 ft 2 kts
2026-04-26 07:33 9.74458 118.74995 83 ft 2 kts
2026-04-26 07:33 9.74448 118.74995 83 ft 1 kts
2026-04-26 07:33 9.74433 118.74996 83 ft 2 kts 332°
2026-04-26 07:33 9.74421 118.75006 83 ft 2 kts 306°
2026-04-26 07:34 9.74414 118.75019 83 ft 2 kts 281°
2026-04-26 07:34 9.74413 118.75027 83 ft 1 kts 271°
2026-04-26 07:34 9.74413 118.75029 83 ft 0 kts 272°
2026-04-26 07:37 9.74414 118.75020 83 ft 3 kts 272°
2026-04-26 07:37 9.74415 118.74979 83 ft 8 kts 272°
2026-04-26 07:37 9.74417 118.74908 83 ft 11 kts 272°
2026-04-26 07:37 9.74421 118.74812 83 ft 15 kts 272°
2026-04-26 07:38 9.74414 118.74731 83 ft 7 kts 237°
2026-04-26 07:38 9.74361 118.74705 83 ft 9 kts 192°
2026-04-26 07:38 9.74290 118.74705 83 ft 9 kts 177°
2026-04-26 07:38 9.74261 118.74728 83 ft 6 kts 105°
2026-04-26 07:39 9.74256 118.74776 83 ft 7 kts 91°
2026-04-26 07:39 9.74251 118.74912 83 ft 46 kts 92°
2026-04-26 07:39 9.74226 118.75481 83 ft 110 kts 92°
2026-04-26 07:39 9.74183 118.76442 120 ft 157 kts 91°
2026-04-26 07:40 9.74120 118.77580 583 ft 164 kts 93°
2026-04-26 07:40 9.74036 118.78702 1292 ft 159 kts 88°
2026-04-26 07:40 9.74434 118.79706 1841 ft 160 kts 42°
2026-04-26 07:40 9.75482 118.80175 2200 ft 170 kts 16°
2026-04-26 07:41 9.76632 118.80437 2739 ft 167 kts 13°
2026-04-26 07:41 9.77755 118.80662 3216 ft 166 kts 12°
2026-04-26 07:41 9.78957 118.80863 3507 ft 180 kts 12°
2026-04-26 07:41 9.80247 118.81107 3784 ft 195 kts 13°
2026-04-26 07:42 9.81647 118.81410 4076 ft 212 kts 14°
2026-04-26 07:42 9.83156 118.81762 4403 ft 230 kts 15°
2026-04-26 07:42 9.84769 118.82152 4818 ft 244 kts 15°
2026-04-26 07:42 9.86439 118.82561 5473 ft 248 kts 15°
2026-04-26 07:43 9.88126 118.82965 6190 ft 250 kts 13°
2026-04-26 07:43 9.89880 118.83199 6729 ft 256 kts
2026-04-26 07:43 9.91757 118.83215 6992 ft 274 kts
2026-04-26 07:43 9.93682 118.83161 7004 ft 277 kts
2026-04-26 07:44 9.95640 118.83094 7008 ft 278 kts
2026-04-26 07:44 9.97595 118.83027 7007 ft 278 kts
2026-04-26 07:44 9.99535 118.82964 7024 ft 280 kts
2026-04-26 07:44 10.01464 118.82905 7430 ft 286 kts
2026-04-26 07:45 10.03451 118.82843 8239 ft 285 kts
2026-04-26 07:45 10.05446 118.82783 8939 ft 288 kts
2026-04-26 07:45 10.07464 118.82723 9587 ft 292 kts
2026-04-26 07:45 10.09537 118.82663 10244 ft 296 kts
2026-04-26 07:46 10.11658 118.82603 10664 ft 309 kts
2026-04-26 07:46 10.13874 118.82538 10988 ft 325 kts 360°
2026-04-26 07:46 10.16172 118.82469 11548 ft 331 kts 360°
2026-04-26 07:46 10.18499 118.82399 12227 ft 333 kts 360°
2026-04-26 07:47 10.20808 118.82331 12873 ft 336 kts 359°
2026-04-26 07:47 10.23193 118.82259 13510 ft 339 kts 359°
2026-04-26 07:47 10.25553 118.82188 14134 ft 342 kts 359°
2026-04-26 07:47 10.27955 118.82116 14748 ft 346 kts 359°
2026-04-26 07:48 10.30399 118.82043 15346 ft 349 kts 359°
2026-04-26 07:48 10.32851 118.81968 15941 ft 352 kts 359°
2026-04-26 07:48 10.35309 118.81894 16530 ft 355 kts 359°
2026-04-26 07:48 10.37823 118.81819 17111 ft 359 kts 359°
2026-04-26 07:49 10.40352 118.81767 17671 ft 362 kts
2026-04-26 07:49 10.42896 118.81862 18231 ft 365 kts
2026-04-26 07:49 10.45467 118.82034 18795 ft 369 kts
2026-04-26 07:50 10.50646 118.82400 19895 ft 375 kts
2026-04-26 07:50 10.53294 118.82588 20431 ft 379 kts
2026-04-26 07:50 10.55983 118.82777 20952 ft 382 kts
2026-04-26 07:50 10.58660 118.82967 21457 ft 386 kts
2026-04-26 07:51 10.61381 118.83157 21959 ft 389 kts
2026-04-26 07:51 10.64109 118.83349 22454 ft 392 kts
2026-04-26 07:51 10.66893 118.83543 22946 ft 395 kts
2026-04-26 07:51 10.69660 118.83740 23420 ft 398 kts
2026-04-26 07:52 10.72476 118.83938 23889 ft 402 kts
2026-04-26 07:52 10.75309 118.84137 24353 ft 405 kts
2026-04-26 07:52 10.78151 118.84335 24789 ft 409 kts
2026-04-26 07:52 10.81009 118.84537 25222 ft 412 kts
2026-04-26 07:53 10.83915 118.84740 25641 ft 416 kts
2026-04-26 07:53 10.86856 118.84947 26064 ft 419 kts
2026-04-26 07:53 10.89791 118.85152 26478 ft 422 kts
2026-04-26 07:53 10.92770 118.85362 26879 ft 426 kts
2026-04-26 07:54 10.95749 118.85571 27268 ft 429 kts
2026-04-26 07:54 10.98769 118.85782 27665 ft 432 kts
2026-04-26 07:54 11.01822 118.85997 28046 ft 435 kts
2026-04-26 07:54 11.04889 118.86214 28426 ft 438 kts
2026-04-26 07:55 11.07982 118.86430 28805 ft 441 kts
2026-04-26 07:55 11.11065 118.86648 29182 ft 444 kts
2026-04-26 07:55 11.14219 118.86870 29576 ft 447 kts
2026-04-26 07:55 11.17331 118.87089 29978 ft 449 kts
2026-04-26 07:56 11.20532 118.87315 30393 ft 450 kts
2026-04-26 07:56 11.23698 118.87538 30784 ft 452 kts
2026-04-26 07:56 11.26847 118.87761 31157 ft 454 kts
2026-04-26 07:56 11.30031 118.87987 31501 ft 457 kts
2026-04-26 07:57 11.33277 118.88216 31859 ft 460 kts
2026-04-26 07:57 11.36507 118.88443 32213 ft 462 kts
2026-04-26 07:57 11.39762 118.88673 32578 ft 464 kts
2026-04-26 07:57 11.43003 118.88902 32963 ft 465 kts
2026-04-26 07:58 11.46284 118.89133 33342 ft 468 kts
2026-04-26 07:58 11.49599 118.89366 33711 ft 470 kts
2026-04-26 07:58 11.52906 118.89600 34053 ft 473 kts
2026-04-26 07:58 11.56213 118.89832 34465 ft 474 kts
2026-04-26 07:59 11.59516 118.90066 34979 ft 472 kts
2026-04-26 07:59 11.62808 118.90299 35465 ft 471 kts
2026-04-26 07:59 11.66136 118.90533 35850 ft 472 kts
2026-04-26 07:59 11.69423 118.90766 36163 ft 474 kts
2026-04-26 08:00 11.72767 118.91002 36470 ft 475 kts
2026-04-26 08:00 11.76116 118.91238 36771 ft 477 kts
2026-04-26 08:00 11.82792 118.91709 36838 ft 479 kts
2026-04-26 08:01 11.89508 118.92183 36839 ft 479 kts
2026-04-26 08:01 11.96191 118.92657 36839 ft 478 kts
2026-04-26 08:02 12.02919 118.93134 36837 ft 478 kts
2026-04-26 08:02 12.09562 118.93604 36836 ft 478 kts
2026-04-26 08:03 12.16205 118.94074 36837 ft 478 kts
2026-04-26 08:03 12.22884 118.94547 36836 ft 478 kts
2026-04-26 08:04 12.29522 118.95019 36838 ft 478 kts
2026-04-26 08:04 12.36228 118.95495 36837 ft 478 kts
2026-04-26 08:05 12.42880 118.95968 36836 ft 478 kts
2026-04-26 08:05 12.49619 118.96446 36837 ft 478 kts
2026-04-26 08:06 12.56286 118.96919 36838 ft 478 kts
2026-04-26 08:06 12.62937 118.97392 36836 ft 478 kts
2026-04-26 08:07 12.69659 118.97870 36841 ft 478 kts
2026-04-26 08:07 12.76307 118.98343 36841 ft 478 kts
2026-04-26 08:08 12.82994 118.98818 36853 ft 478 kts
2026-04-26 08:08 12.89689 118.99296 36853 ft 478 kts
2026-04-26 08:09 12.96300 119.00321 36859 ft 481 kts 15°
2026-04-26 08:09 13.02488 119.03140 36581 ft 483 kts 31°
2026-04-26 08:10 13.05190 119.05139 36297 ft 482 kts 39°
2026-04-26 08:10 13.07619 119.07517 36017 ft 480 kts 47°
2026-04-26 08:10 13.09746 119.10157 35733 ft 477 kts 51°
2026-04-26 08:10 13.11722 119.12775 35457 ft 477 kts 52°
2026-04-26 08:11 13.13765 119.15514 35172 ft 477 kts 52°
2026-04-26 08:11 13.15809 119.18250 34883 ft 477 kts 52°
2026-04-26 08:11 13.17846 119.20963 34592 ft 478 kts 52°
2026-04-26 08:11 13.19889 119.23675 34253 ft 479 kts 52°
2026-04-26 08:12 13.21946 119.26399 33826 ft 481 kts 52°
2026-04-26 08:12 13.24010 119.29131 33360 ft 478 kts 52°
2026-04-26 08:12 13.26039 119.31813 33040 ft 475 kts 52°
2026-04-26 08:12 13.28072 119.34502 32670 ft 473 kts 52°
2026-04-26 08:13 13.30107 119.37196 32315 ft 470 kts 52°
2026-04-26 08:13 13.32116 119.39854 31948 ft 467 kts 52°
2026-04-26 08:13 13.34099 119.42481 31578 ft 464 kts 52°
2026-04-26 08:13 13.36083 119.45108 31199 ft 461 kts 52°
2026-04-26 08:14 13.38056 119.47722 30830 ft 458 kts 52°
2026-04-26 08:14 13.40020 119.50324 30450 ft 455 kts 52°
2026-04-26 08:14 13.41961 119.52895 30071 ft 452 kts 52°
2026-04-26 08:14 13.43899 119.55464 29691 ft 449 kts 52°
2026-04-26 08:15 13.45823 119.58014 29312 ft 446 kts 52°
2026-04-26 08:15 13.47725 119.60536 28934 ft 443 kts 52°
2026-04-26 08:15 13.49608 119.63034 28556 ft 440 kts 52°
2026-04-26 08:15 13.51462 119.65494 28184 ft 437 kts 52°
2026-04-26 08:16 13.53331 119.67976 27807 ft 434 kts 52°
2026-04-26 08:16 13.55163 119.70409 27431 ft 431 kts 52°
2026-04-26 08:16 13.56996 119.72843 27055 ft 428 kts 51°
2026-04-26 08:16 13.58837 119.75288 26690 ft 424 kts 51°
2026-04-26 08:17 13.60642 119.77689 26327 ft 421 kts 51°
2026-04-26 08:17 13.62444 119.80084 25965 ft 418 kts 51°
2026-04-26 08:17 13.64216 119.82439 25600 ft 415 kts 51°
2026-04-26 08:17 13.65977 119.84782 25234 ft 412 kts 51°
2026-04-26 08:18 13.67726 119.87109 24865 ft 410 kts 51°
2026-04-26 08:18 13.69484 119.89446 24493 ft 407 kts 51°
2026-04-26 08:18 13.71200 119.91730 24136 ft 404 kts 51°
2026-04-26 08:18 13.72923 119.94024 23833 ft 399 kts 51°
2026-04-26 08:19 13.74629 119.96294 23565 ft 401 kts 51°
2026-04-26 08:19 13.76333 119.98566 23241 ft 396 kts 51°
2026-04-26 08:19 13.77995 120.00786 22856 ft 388 kts 51°
2026-04-26 08:19 13.79632 120.02969 22486 ft 380 kts 50°
2026-04-26 08:20 13.81240 120.05114 22150 ft 371 kts 50°
2026-04-26 08:20 13.82802 120.07196 22116 ft 362 kts 50°
2026-04-26 08:20 13.84402 120.09251 22096 ft 362 kts 44°
2026-04-26 08:20 13.86313 120.10934 22054 ft 360 kts 31°
2026-04-26 08:21 13.88524 120.12166 21728 ft 358 kts 22°
2026-04-26 08:21 13.90810 120.13197 21388 ft 356 kts 21°
2026-04-26 08:21 13.93125 120.14213 21044 ft 354 kts 21°
2026-04-26 08:21 13.95373 120.15203 20715 ft 352 kts 21°
2026-04-26 08:22 13.97653 120.16214 20399 ft 349 kts 21°
2026-04-26 08:22 13.99903 120.17220 20082 ft 347 kts 22°
2026-04-26 08:22 14.02116 120.18212 19766 ft 345 kts 22°
2026-04-26 08:22 14.04333 120.19209 19455 ft 343 kts 22°
2026-04-26 08:23 14.06513 120.20192 19147 ft 342 kts 22°
2026-04-26 08:23 14.08693 120.21174 18834 ft 341 kts 22°
2026-04-26 08:23 14.10886 120.22164 18513 ft 339 kts 22°
2026-04-26 08:23 14.13069 120.23148 18202 ft 338 kts 22°
2026-04-26 08:24 14.15235 120.24126 17904 ft 336 kts 22°
2026-04-26 08:24 14.17394 120.25101 17600 ft 335 kts 22°
2026-04-26 08:24 14.19538 120.26069 17289 ft 333 kts 22°
2026-04-26 08:24 14.21683 120.27039 16986 ft 331 kts 22°
2026-04-26 08:25 14.23801 120.27995 16689 ft 329 kts 22°
2026-04-26 08:25 14.25896 120.28943 16389 ft 327 kts 22°
2026-04-26 08:25 14.28013 120.29900 16080 ft 326 kts 22°
2026-04-26 08:25 14.30088 120.30839 15787 ft 324 kts 22°
2026-04-26 08:26 14.32175 120.31782 15474 ft 320 kts 22°
2026-04-26 08:26 14.34209 120.32703 15197 ft 318 kts 22°
2026-04-26 08:26 14.36274 120.33637 14910 ft 317 kts 22°
2026-04-26 08:26 14.38316 120.34561 14598 ft 316 kts 22°
2026-04-26 08:27 14.40328 120.35471 14304 ft 315 kts 22°
2026-04-26 08:27 14.42342 120.36388 14007 ft 313 kts 25°
2026-04-26 08:27 14.44170 120.37670 13692 ft 313 kts 44°
2026-04-26 08:27 14.45481 120.39455 13421 ft 312 kts 58°
2026-04-26 08:28 14.46580 120.41415 13155 ft 311 kts 59°
2026-04-26 08:28 14.47636 120.43348 12833 ft 309 kts 59°
2026-04-26 08:28 14.48705 120.45298 12386 ft 306 kts 59°
2026-04-26 08:28 14.49755 120.47199 11969 ft 303 kts 59°
2026-04-26 08:29 14.50809 120.49097 11556 ft 300 kts 59°
2026-04-26 08:29 14.51848 120.50965 11149 ft 297 kts 59°
2026-04-26 08:29 14.52884 120.52823 10833 ft 295 kts 59°
2026-04-26 08:29 14.53898 120.54642 10670 ft 288 kts 59°
2026-04-26 08:30 14.54892 120.56425 10484 ft 278 kts 59°
2026-04-26 08:30 14.55850 120.58142 10299 ft 270 kts 59°
2026-04-26 08:30 14.56783 120.59816 9998 ft 266 kts 59°
2026-04-26 08:30 14.57710 120.61479 9727 ft 264 kts 59°
2026-04-26 08:31 14.58634 120.63133 9486 ft 263 kts 59°
2026-04-26 08:31 14.59558 120.64790 9244 ft 262 kts 59°
2026-04-26 08:31 14.60297 120.66486 8968 ft 264 kts 79°
2026-04-26 08:31 14.60159 120.68369 8771 ft 263 kts 109°
2026-04-26 08:32 14.59147 120.69949 8631 ft 260 kts 138°
2026-04-26 08:32 14.57630 120.70959 8463 ft 258 kts 149°
2026-04-26 08:32 14.56048 120.71854 8315 ft 254 kts 150°
2026-04-26 08:32 14.54486 120.72737 8193 ft 248 kts 149°
2026-04-26 08:33 14.52914 120.73434 8125 ft 246 kts 172°
2026-04-26 08:33 14.51215 120.73175 8085 ft 249 kts 208°
2026-04-26 08:33 14.49934 120.71961 7997 ft 248 kts 239°
2026-04-26 08:33 14.49077 120.70380 7979 ft 248 kts 242°
2026-04-26 08:34 14.48246 120.68800 7971 ft 248 kts 242°
2026-04-26 08:34 14.47416 120.67255 7929 ft 245 kts 241°
2026-04-26 08:34 14.46561 120.65693 7700 ft 246 kts 241°
2026-04-26 08:34 14.45670 120.64176 7477 ft 246 kts 230°
2026-04-26 08:35 14.44262 120.63223 7222 ft 244 kts 190°
2026-04-26 08:35 14.42599 120.63332 6991 ft 239 kts 155°
2026-04-26 08:35 14.41130 120.64166 6799 ft 236 kts 147°
2026-04-26 08:35 14.39712 120.65041 6607 ft 235 kts 147°
2026-04-26 08:36 14.38296 120.65901 6413 ft 235 kts 148°
2026-04-26 08:36 14.36862 120.66756 6219 ft 233 kts 148°
2026-04-26 08:36 14.35432 120.67600 6027 ft 232 kts 148°
2026-04-26 08:36 14.34215 120.68656 5822 ft 227 kts 120°
2026-04-26 08:37 14.33764 120.70194 5612 ft 224 kts 88°
2026-04-26 08:37 14.34087 120.71744 5431 ft 222 kts 68°
2026-04-26 08:37 14.34786 120.73178 5275 ft 218 kts 60°
2026-04-26 08:37 14.35562 120.74513 5102 ft 215 kts 59°
2026-04-26 08:38 14.36345 120.75841 4934 ft 211 kts 59°
2026-04-26 08:38 14.37098 120.77145 4763 ft 209 kts 60°
2026-04-26 08:38 14.37836 120.78449 4517 ft 207 kts 60°
2026-04-26 08:38 14.38565 120.79755 4239 ft 206 kts 61°
2026-04-26 08:39 14.39284 120.81055 3969 ft 205 kts 61°
2026-04-26 08:39 14.39987 120.82330 3696 ft 201 kts 61°
2026-04-26 08:39 14.40673 120.83574 3428 ft 192 kts 62°
2026-04-26 08:39 14.41334 120.84773 3182 ft 186 kts 62°
2026-04-26 08:40 14.41965 120.85916 2956 ft 178 kts 61°
2026-04-26 08:40 14.42568 120.87006 2731 ft 170 kts 61°
2026-04-26 08:40 14.43158 120.88074 2525 ft 163 kts 61°
2026-04-26 08:40 14.43713 120.89075 2328 ft 156 kts 61°
2026-04-26 08:41 14.44243 120.90033 2138 ft 149 kts 61°
2026-04-26 08:41 14.44758 120.90960 1951 ft 141 kts 61°
2026-04-26 08:41 14.45246 120.91840 1781 ft 140 kts 61°
2026-04-26 08:41 14.45734 120.92720 1615 ft 140 kts 61°
2026-04-26 08:42 14.46229 120.93612 1439 ft 140 kts 62°
2026-04-26 08:42 14.46720 120.94493 1260 ft 140 kts 62°
2026-04-26 08:42 14.47206 120.95372 1085 ft 139 kts 62°
2026-04-26 08:42 14.47696 120.96256 897 ft 140 kts 64°
2026-04-26 08:43 14.48173 120.97151 723 ft 140 kts 63°
2026-04-26 08:43 14.48671 120.98007 540 ft 138 kts 60°
2026-04-26 08:43 14.49161 120.98894 362 ft 140 kts 63°
2026-04-26 08:43 14.49642 120.99755 179 ft 138 kts 63°
2026-04-26 08:44 14.50127 121.00624 91 ft 132 kts 62°
2026-04-26 08:44 14.50512 121.01328 90 ft 88 kts 60°
2026-04-26 08:44 14.50744 121.01743 90 ft 52 kts 60°
2026-04-26 08:44 14.50922 121.02064 90 ft 49 kts 60°
2026-04-26 08:45 14.51084 121.02249 90 ft 22 kts 44°
2026-04-26 08:45 14.51154 121.02299 90 ft 9 kts
2026-04-26 08:45 14.51183 121.02249 90 ft 10 kts 253°
2026-04-26 08:45 14.51144 121.02171 90 ft 13 kts 240°
2026-04-26 08:46 14.51092 121.02081 90 ft 15 kts 239°
2026-04-26 08:46 14.51059 121.02009 90 ft 6 kts 278°
2026-04-26 08:46 14.51092 121.01963 90 ft 9 kts 317°
2026-04-26 08:46 14.51149 121.01907 90 ft 12 kts 315°
2026-04-26 08:47 14.51219 121.01836 90 ft 15 kts 316°
2026-04-26 08:47 14.51298 121.01755 90 ft 17 kts 314°
2026-04-26 08:47 14.51385 121.01662 90 ft 18 kts 315°
2026-04-26 08:47 14.51465 121.01580 90 ft 7 kts 315°
2026-04-26 08:48 14.51499 121.01554 90 ft 4 kts 349°
2026-04-26 08:48 14.51530 121.01574 90 ft 7 kts 52°
2026-04-26 08:48 14.51560 121.01606 90 ft 2 kts 44°
2026-04-26 08:48 14.51561 121.01608 90 ft 0 kts 44°